[[{"header":{"parameterUnit":"m.s-1","parameterCategory":2,"la1":30.2991,"la2":30.254,"lo1":-89.0895,"lo2":-89.0444,"dy":0.0017,"dx":0.0017,"nx":28,"ny":28,"refTime":"2024-05-09T21:00:00:Z","depth":"0","parameterNumber":2,"parameterNumberName":"U-component_of_CURRENTS"},"data":[0,0,0,0,0,0,0,0,0,0,0,0,0,0,0,0,0,0,0,0,0,0,0,0,0,0,0,0,0,0,0,0,0,0,0,0,0,0,0,0,0,0,0,0,0,0,0,0,0,0,0,0,0,0,0,0,0,0,0.0951,0.0952,0,0.097,0.097,0.0969,0.0978,0.0979,0.0979,0.098,0.0918,0.0916,0.0914,0,0,0,0,0,0,0,0,0,0,0,0,0,0.0915,0.0916,0.0951,0.0952,0.0952,0.097,0.097,0.0969,0.0978,0.0979,0.0979,0.098,0.0919,0.0916,0.0914,0,0,0,0,0,0,0,0,0,0,0,0,0,0.0928,0.0916,0.0951,0.0962,0.0964,0.097,0.097,0.0969,0.0978,0.0979,0.0979,0.098,0.0919,0.0916,0.0913,0.0881,0,0,0.0904,0.0903,0,0,0,0,0,0,0,0,0.0927,0.0928,0.096,0.0962,0.0964,0.0977,0.0935,0.0938,0.0978,0.0968,0.098,0.098,0.0933,0.0929,0.0925,0.0879,0.0876,0.0904,0.0902,0.0901,0.09,0,0,0,0,0,0,0,0.0926,0.0927,0.0954,0.0961,0.0963,0.0965,0.0966,0.0935,0.0941,0.0969,0.0971,0.098,0.0933,0.0928,0.0923,0.0875,0.0904,0.0901,0.0899,0.0898,0.0796,0.0795,0,0,0,0,0,0,0.0933,0.0927,0.0953,0.0955,0.0952,0.0965,0.0967,0.0968,0.0943,0.0942,0.098,0.0981,0.0933,0.0927,0.0921,0.0872,0.0901,0.0898,0.0896,0.0797,0.0796,0.0795,0,0,0,0,0,0,0.0932,0.0935,0.0952,0.0945,0.0948,0.0965,0.0966,0.0968,0.0965,0.0953,0.095,0.0976,0.0933,0.0926,0.0898,0.087,0.0896,0.0894,0.0798,0.0796,0.0795,0.078,0,0,0,0,0,0,0.0931,0.0934,0.0925,0.0946,0.0949,0.0949,0.0966,0.0968,0.0972,0.0974,0.0948,0.0944,0.0933,0.0903,0.0895,0.0866,0.0891,0.0799,0.0797,0.0796,0.0782,0.0778,0.0775,0,0,0,0,0,0.0929,0.0917,0.0924,0.0927,0.094,0.0949,0.0949,0.0961,0.0972,0.0962,0.0954,0.0945,0.0886,0.09,0.0891,0.0861,0.08,0.0798,0.0796,0.0783,0.0779,0.0775,0,0,0,0,0,0,0.09,0.0918,0.0926,0.0921,0.0932,0.0952,0.0945,0.0958,0.0945,0.0942,0.0935,0.0929,0.0892,0.088,0.0895,0.0827,0.084,0.0836,0.0833,0.0829,0.0826,0.0844,0.0889,0,0,0,0,0,0.089,0.0887,0.0906,0.0905,0.0905,0.0924,0.0927,0.0936,0.0937,0.0933,0.0923,0.0903,0.0875,0.0858,0.0833,0.0795,0.0855,0.0769,0.0766,0.0764,0.0773,0.0836,0.0841,0.0788,0.0788,0.0788,0,0,0.0884,0.0893,0.0893,0.0899,0.0906,0.0897,0.0925,0.0926,0.0918,0.0925,0.09,0.089,0.0864,0.0826,0.0807,0.0813,0.0819,0.0761,0.076,0.077,0.0834,0.084,0.0845,0.0787,0.0787,0.0787,0,0,0.0874,0.0871,0.0864,0.0863,0.0872,0.0877,0.0877,0.089,0.0888,0.087,0.0871,0.0856,0.0812,0.0798,0.0782,0.0746,0.0801,0.0726,0.0721,0.0782,0.0788,0.0793,0.0923,0.094,0.0723,0.0723,0.0723,0,0.0866,0.0858,0.0864,0.0852,0.085,0.0865,0.0854,0.0847,0.0852,0.0855,0.0856,0.0827,0.08,0.0771,0.0755,0.0738,0.0812,0.0737,0.0782,0.0788,0.0794,0.0925,0.0945,0.0722,0.0722,0.0722,0.0722,0,0.0848,0.0837,0.0831,0.0818,0.0811,0.0804,0.08,0.0794,0.0798,0.0806,0.0793,0.0778,0.0775,0.0746,0.0733,0.0745,0.0802,0.0775,0.0799,0.0799,0.0937,0.0958,0.072,0.0721,0.0721,0.0721,0,0,0.0852,0.0825,0.0823,0.0813,0.0791,0.0791,0.0763,0.076,0.0773,0.0759,0.079,0.0725,0.0753,0.0738,0.0729,0.076,0.0867,0.0784,0.0787,0.0929,0.1072,0.131,0.1356,0.0856,0.0858,0.086,0.1169,0,0.0841,0.0813,0.08,0.0775,0.076,0.0754,0.0739,0.0735,0.0744,0.0774,0.0766,0.079,0.0738,0.0765,0.0777,0.0855,0.0913,0.0791,0.1036,0.1045,0.1268,0.1384,0.1491,0.1793,0.119,0.1193,0.1196,0,0.0827,0.0812,0.0782,0.0766,0.076,0.0748,0.0749,0.0744,0.0771,0.0791,0.0809,0.0836,0.0884,0.0845,0.0983,0.0917,0.099,0.1044,0.1057,0.1298,0.1321,0.1683,0.1853,0.1767,0.1228,0.1225,0.1223,0,0.0831,0.0802,0.0781,0.0769,0.0747,0.0744,0.0745,0.0755,0.0792,0.0839,0.0922,0.0933,0.1042,0.1074,0.1206,0.1104,0.1413,0.1287,0.1573,0.1593,0.1745,0.1776,0.1874,0.139,0.1389,0.1388,0.1387,0,0.0822,0.0808,0.0786,0.0774,0.0773,0.0758,0.0785,0.0791,0.0861,0.0961,0.0959,0.1097,0.111,0.1285,0.1299,0.1586,0.1507,0.1637,0.1701,0.175,0.1776,0.1754,0.1637,0.14,0.1397,0.1395,0.1393,0,0.0827,0.0807,0.0789,0.0771,0.0773,0.0778,0.0834,0.0878,0.0948,0.11,0.115,0.1301,0.1563,0.1637,0.1796,0.1818,0.1969,0.2082,0.2193,0.2266,0.2406,0.2284,0.2374,0.2289,0.243,0.2438,0.2444,0,0.0822,0.0812,0.0797,0.0806,0.0802,0.0822,0.0858,0.0909,0.1001,0.1255,0.1371,0.1672,0.1916,0.2297,0.2416,0.2605,0.2347,0.2779,0.257,0.2508,0.2414,0.2165,0.206,0.2774,0.2782,0.279,0.2795,0,0.0822,0.082,0.0812,0.083,0.0858,0.09,0.098,0.1073,0.1207,0.1382,0.1704,0.1931,0.2399,0.2694,0.2991,0.3071,0.2681,0.2939,0.2812,0.2682,0.2475,0.2395,0.2499,0.286,0.2853,0.2849,0.2845,0.2843,0.0832,0.0838,0.084,0.086,0.0899,0.099,0.1053,0.1206,0.1391,0.1692,0.192,0.2284,0.2759,0.3225,0.3296,0.349,0.3203,0.3387,0.3253,0.3011,0.2897,0.3214,0.3672,0.367,0.3669,0.3668,0.3666,0,0.0853,0.0867,0.088,0.091,0.0967,0.0989,0.1144,0.124,0.1486,0.1812,0.2121,0.2691,0.3121,0.3413,0.3793,0.3756,0.3472,0.3653,0.3238,0.3114,0.3402,0.3386,0.388,0.388,0.388,0.388,0.388,0.388,0.087,0.0889,0.0893,0.0963,0.1005,0.1102,0.12,0.1363,0.1582,0.1999,0.2336,0.264,0.3148,0.3676,0.3855,0.3803,0.3377,0.3397,0.3144,0.3279,0.3236,0.3195,0.3152,0.3588,0.3588,0.2799,0.2793,0.2789]},{"header":{"parameterUnit":"m.s-1","parameterCategory":2,"la1":30.2991,"la2":30.254,"lo1":-89.0895,"lo2":-89.0444,"dy":0.0017,"dx":0.0017,"nx":28,"ny":28,"refTime":"2024-05-09T21:00:00:Z","depth":"0","parameterNumber":3,"parameterNumberName":"V-component_of_CURRENTS"},"data":[0,0,0,0,0,0,0,0,0,0,0,0,0,0,0,0,0,0,0,0,0,0,0,0,0,0,0,0,0,0,0,0,0,0,0,0,0,0,0,0,0,0,0,0,0,0,0,0,0,0,0,0,0,0,0,0,0,0,-0.1622,-0.1623,0,-0.1722,-0.1723,-0.1724,-0.1743,-0.1742,-0.1741,-0.1741,-0.1741,-0.1742,-0.1742,0,0,0,0,0,0,0,0,0,0,0,0,0,-0.143,-0.1433,-0.1622,-0.1623,-0.1625,-0.1722,-0.1723,-0.1725,-0.1743,-0.1742,-0.1741,-0.174,-0.1741,-0.1741,-0.1742,0,0,0,0,0,0,0,0,0,0,0,0,0,-0.152,-0.1435,-0.1622,-0.1646,-0.1649,-0.1722,-0.1723,-0.1725,-0.1743,-0.1742,-0.1741,-0.174,-0.174,-0.1741,-0.1742,-0.1773,0,0,-0.1746,-0.1746,0,0,0,0,0,0,0,0,-0.1515,-0.1527,-0.1641,-0.1644,-0.1648,-0.1719,-0.1656,-0.1736,-0.1744,-0.1707,-0.1741,-0.1739,-0.1725,-0.1728,-0.175,-0.1773,-0.1773,-0.1746,-0.1747,-0.1747,-0.1747,0,0,0,0,0,0,0,-0.1508,-0.1522,-0.1661,-0.1643,-0.1647,-0.1646,-0.1657,-0.1671,-0.1719,-0.171,-0.1712,-0.1724,-0.1726,-0.1749,-0.175,-0.1773,-0.1746,-0.1747,-0.1748,-0.1748,-0.1751,-0.175,0,0,0,0,0,0,-0.15,-0.1517,-0.1658,-0.1664,-0.1577,-0.165,-0.1663,-0.1697,-0.1722,-0.1725,-0.1725,-0.1725,-0.1748,-0.1749,-0.175,-0.1745,-0.1747,-0.1748,-0.1749,-0.1752,-0.1751,-0.175,0,0,0,0,0,0,-0.1496,-0.1512,-0.1654,-0.1591,-0.1609,-0.1655,-0.1693,-0.17,-0.1722,-0.1734,-0.1735,-0.174,-0.1747,-0.1748,-0.1764,-0.1746,-0.1749,-0.175,-0.1752,-0.1751,-0.1751,-0.1762,0,0,0,0,0,0,-0.149,-0.1511,-0.1539,-0.1592,-0.1613,-0.1706,-0.1694,-0.1703,-0.1732,-0.1732,-0.1747,-0.1746,-0.1746,-0.1763,-0.1765,-0.1748,-0.175,-0.1753,-0.1752,-0.1751,-0.1762,-0.1761,-0.1761,0,0,0,0,0,-0.1483,-0.1524,-0.1541,-0.1558,-0.1649,-0.1708,-0.1719,-0.1745,-0.1733,-0.1757,-0.1757,-0.1746,-0.1756,-0.1765,-0.1767,-0.175,-0.1754,-0.1752,-0.1751,-0.1762,-0.1762,-0.1761,0,0,0,0,0,0,-0.1443,-0.1532,-0.155,-0.1614,-0.1661,-0.1711,-0.1739,-0.1749,-0.1772,-0.1765,-0.1761,-0.1762,-0.1761,-0.1759,-0.1768,-0.1743,-0.1743,-0.1743,-0.1751,-0.175,-0.175,-0.1726,-0.1751,0,0,0,0,0,-0.1452,-0.1512,-0.1579,-0.1625,-0.1655,-0.1696,-0.1723,-0.174,-0.1765,-0.1775,-0.1778,-0.177,-0.1761,-0.176,-0.176,-0.1765,-0.1732,-0.1747,-0.1746,-0.1745,-0.1726,-0.1661,-0.1653,-0.1746,-0.1746,-0.1746,0,0,-0.1442,-0.1502,-0.1531,-0.1622,-0.166,-0.1692,-0.171,-0.1755,-0.1758,-0.1769,-0.1774,-0.1777,-0.1762,-0.1761,-0.1757,-0.1756,-0.1707,-0.1744,-0.1744,-0.1724,-0.1659,-0.165,-0.1641,-0.1745,-0.1745,-0.1745,0,0,-0.1446,-0.1514,-0.1561,-0.1605,-0.1674,-0.1698,-0.1709,-0.1763,-0.177,-0.1789,-0.1777,-0.177,-0.1778,-0.1755,-0.1742,-0.1737,-0.1707,-0.1735,-0.1714,-0.1652,-0.1643,-0.1635,-0.1604,-0.1593,-0.1732,-0.1732,-0.1732,0,-0.142,-0.1496,-0.1577,-0.1623,-0.1638,-0.1694,-0.1708,-0.1738,-0.1778,-0.1764,-0.1786,-0.1756,-0.1762,-0.1717,-0.1723,-0.1733,-0.1705,-0.1723,-0.165,-0.1641,-0.1633,-0.1602,-0.159,-0.1733,-0.1733,-0.1733,-0.1733,0,-0.1455,-0.1508,-0.1536,-0.1608,-0.1636,-0.1666,-0.1706,-0.1723,-0.1731,-0.1738,-0.1716,-0.1733,-0.1698,-0.1707,-0.1723,-0.1661,-0.1665,-0.166,-0.1653,-0.1624,-0.1594,-0.1581,-0.1733,-0.1733,-0.1733,-0.1733,0,0,-0.1397,-0.1531,-0.1535,-0.1548,-0.1624,-0.1637,-0.165,-0.1658,-0.1618,-0.1672,-0.1608,-0.1637,-0.1638,-0.1623,-0.1633,-0.1604,-0.155,-0.1616,-0.1612,-0.1586,-0.1431,-0.1384,-0.1365,-0.1534,-0.1531,-0.1529,-0.1443,0,-0.1383,-0.1445,-0.1513,-0.1522,-0.1544,-0.1585,-0.1569,-0.1578,-0.1581,-0.1542,-0.1561,-0.1515,-0.1606,-0.1572,-0.1567,-0.1537,-0.1512,-0.1575,-0.146,-0.1457,-0.1418,-0.1346,-0.123,-0.1137,-0.143,-0.1428,-0.1426,0,-0.1386,-0.1422,-0.1436,-0.1455,-0.146,-0.1457,-0.1408,-0.1407,-0.1387,-0.1379,-0.1373,-0.1383,-0.1363,-0.1425,-0.1392,-0.1429,-0.1431,-0.1427,-0.1423,-0.1357,-0.1383,-0.1208,-0.1102,-0.1326,-0.1406,-0.1407,-0.1409,0,-0.129,-0.1357,-0.1349,-0.1364,-0.1397,-0.1372,-0.1365,-0.1344,-0.1281,-0.1259,-0.1183,-0.1218,-0.1153,-0.1198,-0.1242,-0.1297,-0.1183,-0.1246,-0.1211,-0.121,-0.1073,-0.1063,-0.1161,-0.1193,-0.1193,-0.1194,-0.1194,0,-0.1248,-0.1241,-0.13,-0.1292,-0.1226,-0.1277,-0.1172,-0.118,-0.1105,-0.0963,-0.1077,-0.0945,-0.1083,-0.1055,-0.1157,-0.1131,-0.1112,-0.1176,-0.1162,-0.1078,-0.107,-0.1228,-0.1365,-0.119,-0.1191,-0.1192,-0.1192,0,-0.1153,-0.121,-0.1187,-0.1198,-0.1189,-0.1129,-0.1044,-0.0944,-0.0917,-0.0725,-0.0694,-0.0689,-0.0655,-0.0802,-0.0824,-0.0947,-0.1046,-0.097,-0.0886,-0.0863,-0.1072,-0.1211,-0.1222,-0.1309,-0.0922,-0.092,-0.0918,0,-0.1114,-0.1102,-0.1087,-0.1035,-0.1036,-0.0959,-0.0869,-0.0843,-0.0702,-0.0525,-0.0382,-0.0333,-0.0215,-0.0302,-0.0517,-0.0669,-0.0899,-0.0694,-0.0782,-0.1038,-0.1183,-0.1298,-0.1382,-0.0621,-0.0617,-0.0614,-0.0611,0,-0.1002,-0.0997,-0.0964,-0.0865,-0.0779,-0.0662,-0.0532,-0.0389,-0.0276,-0.0109,0.016,0.026,0.0174,0.0102,-0.0177,-0.0326,-0.0822,-0.0631,-0.0886,-0.0935,-0.1067,-0.1157,-0.0776,-0.0582,-0.0585,-0.0587,-0.0589,-0.059,-0.0882,-0.0821,-0.0762,-0.0653,-0.0539,-0.0328,-0.0144,0.0038,0.0301,0.0641,0.0638,0.0896,0.0654,0.031,0.0004,-0.0507,-0.0589,-0.0655,-0.0796,-0.0887,-0.0985,-0.0562,-0.0365,-0.0367,-0.0368,-0.0369,-0.037,0,-0.0698,-0.0643,-0.0542,-0.037,-0.016,-0.016,0.0134,0.0376,0.0767,0.1019,0.1279,0.1402,0.1049,0.0555,-0.0126,-0.0576,-0.0803,-0.0858,-0.102,-0.1098,-0.0679,-0.0686,-0.0559,-0.0559,-0.0559,-0.0559,-0.0559,-0.0558,-0.0593,-0.0448,-0.04,-0.004,0.0111,0.0468,0.0681,0.099,0.1247,0.1681,0.1919,0.2042,0.1687,0.0361,-0.0636,-0.0899,-0.1297,-0.1307,-0.1581,-0.1349,-0.1344,-0.1339,-0.1381,-0.1402,-0.1403,-0.1909,-0.1914,-0.1918]}],[{"header":{"parameterUnit":"m.s-1","parameterCategory":2,"la1":30.2991,"la2":30.254,"lo1":-89.0895,"lo2":-89.0444,"dy":0.0017,"dx":0.0017,"nx":28,"ny":28,"refTime":"2024-05-09T21:00:00:Z","depth":"2","parameterNumber":2,"parameterNumberName":"U-component_of_CURRENTS"},"data":[0,0,0,0,0,0,0,0,0,0,0,0,0,0,0,0,0,0,0,0,0,0,0,0,0,0,0,0,0,0,0,0,0,0,0,0,0,0,0,0,0,0,0,0,0,0,0,0,0,0,0,0,0,0,0,0,0,0,0.1485,0.1486,0,0.1527,0.1527,0.1527,0.1523,0.1523,0.1523,0.1522,0.1482,0.1481,0.148,0,0,0,0,0,0,0,0,0,0,0,0,0,0.1357,0.1359,0.1485,0.1486,0.1487,0.1527,0.1527,0.1527,0.1523,0.1523,0.1523,0.1522,0.1482,0.1481,0.148,0,0,0,0,0,0,0,0,0,0,0,0,0,0.1402,0.136,0.1485,0.1493,0.1495,0.1527,0.1527,0.1528,0.1523,0.1523,0.1522,0.1522,0.1482,0.1481,0.148,0.1478,0,0,0.1476,0.1475,0,0,0,0,0,0,0,0,0.14,0.1406,0.1491,0.1493,0.1495,0.1524,0.1468,0.1508,0.1523,0.1507,0.1522,0.1522,0.1492,0.149,0.1492,0.1476,0.1474,0.1476,0.1475,0.1474,0.1474,0,0,0,0,0,0,0,0.1397,0.1404,0.1496,0.1492,0.1494,0.1481,0.1486,0.1475,0.1495,0.1508,0.1509,0.1522,0.1491,0.1494,0.1491,0.1473,0.1476,0.1474,0.1474,0.1473,0.1416,0.1416,0,0,0,0,0,0,0.1405,0.1402,0.1495,0.1498,0.1451,0.1484,0.149,0.1511,0.1497,0.1497,0.1523,0.1522,0.1496,0.1493,0.1489,0.1467,0.1474,0.1473,0.1472,0.1417,0.1416,0.1416,0,0,0,0,0,0,0.1402,0.1413,0.1494,0.1454,0.1464,0.1487,0.151,0.1512,0.1512,0.151,0.1507,0.1521,0.1496,0.1491,0.147,0.1466,0.1472,0.1471,0.1418,0.1417,0.1416,0.1433,0,0,0,0,0,0,0.1398,0.1412,0.1425,0.1455,0.1467,0.1509,0.1511,0.1513,0.1523,0.1523,0.1507,0.1504,0.1495,0.1472,0.1469,0.1464,0.147,0.1419,0.1418,0.1416,0.1433,0.1433,0.1432,0,0,0,0,0,0.1394,0.142,0.1425,0.1437,0.1486,0.151,0.1513,0.1524,0.1523,0.1522,0.1508,0.1504,0.1461,0.1471,0.1467,0.1461,0.142,0.1418,0.1416,0.1434,0.1433,0.1432,0,0,0,0,0,0,0.1372,0.1424,0.143,0.1471,0.1485,0.1511,0.1521,0.1524,0.1514,0.151,0.1498,0.1493,0.1469,0.1461,0.1472,0.1439,0.1439,0.1436,0.1453,0.1452,0.1451,0.1476,0.1469,0,0,0,0,0,0.1375,0.1403,0.1441,0.1466,0.148,0.1496,0.1507,0.1512,0.1515,0.1511,0.1497,0.1479,0.1461,0.1454,0.1434,0.1422,0.148,0.1413,0.1413,0.1412,0.1428,0.151,0.152,0.141,0.141,0.141,0,0,0.1369,0.1404,0.1417,0.1462,0.1477,0.1487,0.15,0.1518,0.1515,0.1506,0.1489,0.1474,0.1455,0.1437,0.1426,0.1431,0.1477,0.141,0.141,0.1427,0.1509,0.1521,0.1531,0.1409,0.141,0.141,0,0,0.1366,0.1407,0.1422,0.1438,0.1468,0.1483,0.1487,0.1505,0.1505,0.1491,0.148,0.1472,0.1437,0.1436,0.1428,0.1414,0.1467,0.1393,0.1418,0.1497,0.1508,0.1518,0.1634,0.1654,0.1399,0.1399,0.1399,0,0.1351,0.1385,0.1425,0.1438,0.1452,0.1478,0.1483,0.149,0.149,0.1497,0.1482,0.1464,0.1443,0.1447,0.1434,0.1417,0.1483,0.1425,0.1501,0.1512,0.1523,0.1639,0.1661,0.1399,0.1399,0.1399,0.1399,0,0.1357,0.1376,0.1388,0.1414,0.1431,0.1444,0.1466,0.1473,0.1475,0.1484,0.1486,0.1471,0.1473,0.1452,0.1435,0.1483,0.1516,0.1491,0.1514,0.1536,0.1656,0.1679,0.14,0.14,0.14,0.14,0,0,0.1334,0.1382,0.138,0.1391,0.1422,0.144,0.1447,0.1473,0.1502,0.1489,0.1529,0.1487,0.1505,0.1497,0.1487,0.1541,0.1666,0.1545,0.1549,0.1682,0.1883,0.1864,0.1889,0.166,0.1663,0.1666,0.195,0,0.1316,0.1339,0.1365,0.1374,0.1391,0.1423,0.1435,0.1461,0.1489,0.1534,0.1543,0.1568,0.1515,0.1536,0.1576,0.1645,0.1723,0.1594,0.1824,0.1832,0.183,0.1912,0.1717,0.1949,0.1973,0.1977,0.198,0,0.1304,0.1328,0.1337,0.1378,0.139,0.1395,0.1455,0.147,0.1539,0.1565,0.1605,0.1635,0.1705,0.1659,0.182,0.1745,0.1816,0.187,0.1882,0.1875,0.1855,0.1923,0.1991,0.2019,0.2016,0.2013,0.201,0,0.1278,0.1306,0.1318,0.1328,0.1376,0.1388,0.1414,0.1475,0.1531,0.1609,0.1689,0.1744,0.183,0.1902,0.2012,0.1932,0.2225,0.2131,0.2192,0.2194,0.2079,0.2063,0.2263,0.2263,0.2262,0.2262,0.2261,0,0.1258,0.1267,0.1309,0.1317,0.1348,0.1378,0.1432,0.1471,0.1573,0.1674,0.1712,0.1838,0.1898,0.2064,0.2103,0.2259,0.2314,0.2238,0.227,0.2079,0.2061,0.2139,0.212,0.2272,0.227,0.2268,0.2266,0,0.1227,0.125,0.1274,0.132,0.1336,0.1359,0.1454,0.1518,0.1606,0.1755,0.1802,0.1972,0.2176,0.2278,0.2455,0.2415,0.2536,0.2577,0.2371,0.237,0.2427,0.2406,0.2654,0.2656,0.2658,0.2659,0.266,0,0.1215,0.1222,0.1275,0.1301,0.132,0.1367,0.1421,0.1513,0.1611,0.1852,0.195,0.2193,0.2332,0.2602,0.262,0.2732,0.2715,0.2581,0.2349,0.2464,0.2471,0.2447,0.2424,0.223,0.2228,0.2226,0.2224,0,0.1197,0.1214,0.124,0.1294,0.1343,0.1415,0.1505,0.1592,0.1742,0.1883,0.2121,0.2251,0.2498,0.2517,0.2643,0.265,0.2524,0.2539,0.2771,0.2135,0.2079,0.208,0.2069,0.2205,0.2207,0.2209,0.221,0.221,0.1186,0.1203,0.1241,0.1296,0.1358,0.1456,0.1517,0.162,0.1767,0.1942,0.213,0.2244,0.2325,0.2406,0.2412,0.2406,0.2529,0.2362,0.2362,0.2366,0.224,0.2186,0.2314,0.2316,0.2318,0.232,0.2322,0,0.1178,0.1205,0.1249,0.1321,0.1395,0.1437,0.1578,0.1607,0.1727,0.1888,0.2015,0.1948,0.1996,0.2107,0.2068,0.207,0.1977,0.1983,0.183,0.1853,0.1873,0.1711,0.1651,0.1649,0.1646,0.1644,0,0,0.1174,0.1208,0.1239,0.1342,0.1401,0.1484,0.1561,0.1556,0.1638,0.1679,0.1735,0.1886,0.2037,0.1802,0.1799,0.1727,0.1761,0.1664,0.2212,0.2056,0.2072,0.2118,0.1902,0,0,0,0,0]},{"header":{"parameterUnit":"m.s-1","parameterCategory":2,"la1":30.2991,"la2":30.254,"lo1":-89.0895,"lo2":-89.0444,"dy":0.0017,"dx":0.0017,"nx":28,"ny":28,"refTime":"2024-05-09T21:00:00:Z","depth":"2","parameterNumber":3,"parameterNumberName":"V-component_of_CURRENTS"},"data":[0,0,0,0,0,0,0,0,0,0,0,0,0,0,0,0,0,0,0,0,0,0,0,0,0,0,0,0,0,0,0,0,0,0,0,0,0,0,0,0,0,0,0,0,0,0,0,0,0,0,0,0,0,0,0,0,0,0,-0.0181,-0.0181,0,-0.0249,-0.025,-0.025,-0.0322,-0.0323,-0.0324,-0.0325,-0.046,-0.0463,-0.0465,0,0,0,0,0,0,0,0,0,0,0,0,0,-0.0137,-0.0138,-0.018,-0.0181,-0.0182,-0.0249,-0.025,-0.0251,-0.0322,-0.0323,-0.0324,-0.0325,-0.0459,-0.0462,-0.0465,0,0,0,0,0,0,0,0,0,0,0,0,0,-0.0175,-0.0138,-0.018,-0.0226,-0.0231,-0.0249,-0.025,-0.0251,-0.0321,-0.0323,-0.0325,-0.0326,-0.0458,-0.0462,-0.0466,-0.0458,0,0,-0.0478,-0.0479,0,0,0,0,0,0,0,0,-0.0173,-0.0177,-0.0219,-0.0223,-0.0229,-0.0279,-0.0284,-0.0324,-0.0321,-0.0286,-0.0325,-0.0327,-0.0405,-0.0413,-0.0421,-0.0465,-0.047,-0.0478,-0.0481,-0.0482,-0.0483,0,0,0,0,0,0,0,-0.017,-0.0174,-0.0207,-0.0219,-0.0226,-0.0253,-0.0259,-0.0292,-0.0337,-0.029,-0.0295,-0.0303,-0.0408,-0.0417,-0.0425,-0.0472,-0.0478,-0.0482,-0.0484,-0.0485,-0.0579,-0.0579,0,0,0,0,0,0,-0.016,-0.0171,-0.0205,-0.0209,-0.0205,-0.0252,-0.026,-0.0261,-0.0335,-0.0348,-0.0302,-0.0306,-0.0409,-0.042,-0.043,-0.0474,-0.0482,-0.0486,-0.0488,-0.0579,-0.0579,-0.0579,0,0,0,0,0,0,-0.0158,-0.0162,-0.0202,-0.0193,-0.02,-0.0251,-0.0252,-0.0261,-0.0291,-0.0344,-0.0358,-0.0325,-0.0411,-0.0424,-0.0471,-0.0478,-0.0488,-0.0491,-0.0579,-0.0579,-0.0579,-0.0532,0,0,0,0,0,0,-0.0157,-0.0161,-0.0164,-0.0192,-0.02,-0.0214,-0.0251,-0.0262,-0.0293,-0.03,-0.0367,-0.038,-0.0413,-0.0465,-0.0475,-0.0484,-0.0494,-0.0579,-0.0579,-0.0579,-0.0533,-0.053,-0.0528,0,0,0,0,0,-0.0155,-0.0145,-0.0164,-0.0169,-0.0201,-0.0213,-0.022,-0.0261,-0.0292,-0.0296,-0.0348,-0.0379,-0.0474,-0.0468,-0.048,-0.049,-0.0579,-0.0579,-0.0579,-0.0534,-0.0531,-0.0528,0,0,0,0,0,0,-0.0126,-0.0153,-0.0174,-0.0173,-0.0195,-0.0226,-0.0236,-0.0265,-0.0308,-0.0324,-0.038,-0.0395,-0.044,-0.0469,-0.0461,-0.0518,-0.0532,-0.0535,-0.0494,-0.0491,-0.0489,-0.0466,-0.0497,0,0,0,0,0,-0.012,-0.0125,-0.0152,-0.0154,-0.0164,-0.0203,-0.0218,-0.0245,-0.0282,-0.0303,-0.0354,-0.0406,-0.0445,-0.0472,-0.051,-0.0538,-0.0548,-0.0553,-0.055,-0.0548,-0.0538,-0.0556,-0.0553,-0.058,-0.058,-0.058,0,0,-0.0112,-0.0126,-0.0132,-0.0149,-0.0172,-0.0178,-0.0217,-0.0236,-0.0249,-0.0311,-0.0354,-0.0401,-0.0451,-0.0484,-0.0507,-0.0513,-0.0544,-0.0548,-0.0546,-0.0537,-0.0556,-0.0553,-0.055,-0.0581,-0.0581,-0.0581,0,0,-0.009,-0.0108,-0.0106,-0.0118,-0.0147,-0.0166,-0.0173,-0.0214,-0.0243,-0.0281,-0.0331,-0.0377,-0.0443,-0.0473,-0.0498,-0.0502,-0.053,-0.0524,-0.0493,-0.0511,-0.0508,-0.0506,-0.0505,-0.0503,-0.0522,-0.0521,-0.0521,0,-0.0082,-0.0083,-0.0106,-0.0105,-0.0117,-0.016,-0.016,-0.0184,-0.0239,-0.0258,-0.0293,-0.0384,-0.0433,-0.0463,-0.047,-0.0496,-0.0504,-0.05,-0.0505,-0.0504,-0.0502,-0.0502,-0.05,-0.0519,-0.0519,-0.052,-0.052,0,-0.0054,-0.0064,-0.0061,-0.0075,-0.0085,-0.0092,-0.0123,-0.0144,-0.0191,-0.0222,-0.0274,-0.0338,-0.0389,-0.0416,-0.0449,-0.0466,-0.0474,-0.0499,-0.0508,-0.0496,-0.0497,-0.0496,-0.0516,-0.0517,-0.0517,-0.0518,0,0,-0.0019,-0.004,-0.0041,-0.0051,-0.0074,-0.0078,-0.0089,-0.0112,-0.0119,-0.0185,-0.02,-0.0281,-0.0322,-0.0351,-0.04,-0.0421,-0.0426,-0.0455,-0.0457,-0.0443,-0.045,-0.0466,-0.0467,-0.0453,-0.0453,-0.0453,-0.0449,0,0.0001,0.0008,-0.0006,-0.0008,-0.0013,-0.0042,-0.0043,-0.0067,-0.0102,-0.0123,-0.0189,-0.0227,-0.0294,-0.032,-0.0353,-0.0406,-0.0424,-0.0423,-0.0472,-0.0473,-0.0481,-0.0467,-0.0462,-0.046,-0.0449,-0.0449,-0.0449,0,0.003,0.0027,0.003,0.0016,0.0013,0.0009,0.0001,-0.0007,-0.0033,-0.0059,-0.0103,-0.015,-0.0195,-0.0253,-0.033,-0.0327,-0.0384,-0.0425,-0.0427,-0.0457,-0.0489,-0.0474,-0.0459,-0.0448,-0.0448,-0.0448,-0.0448,0,0.0059,0.005,0.005,0.0045,0.0032,0.0026,0.0017,0.0002,0.0018,-0.0018,0.0,-0.008,-0.01,-0.0187,-0.028,-0.0306,-0.0348,-0.0395,-0.0458,-0.0459,-0.0471,-0.0474,-0.0442,-0.0442,-0.0442,-0.0442,-0.0442,0,0.0087,0.0083,0.0058,0.0059,0.0068,0.0045,0.0061,0.0049,0.0062,0.0108,0.003,0.0063,-0.0084,-0.0124,-0.0235,-0.0332,-0.0315,-0.0442,-0.046,-0.0455,-0.0456,-0.0464,-0.0467,-0.0442,-0.0442,-0.0442,-0.0442,0,0.0115,0.0098,0.0099,0.0083,0.0079,0.0083,0.0103,0.0133,0.0133,0.0201,0.0204,0.0178,0.0115,-0.0017,-0.0142,-0.0256,-0.0359,-0.0398,-0.0372,-0.0389,-0.0471,-0.0471,-0.0474,-0.0475,-0.0476,-0.0476,-0.0476,0,0.0131,0.0131,0.0124,0.0135,0.0122,0.0128,0.0154,0.016,0.0214,0.0289,0.0345,0.0309,0.0294,0.0105,-0.011,-0.0299,-0.0327,-0.0411,-0.0477,-0.0457,-0.0474,-0.0474,-0.0474,-0.0467,-0.0467,-0.0467,-0.0467,0,0.0162,0.0153,0.0161,0.0182,0.0199,0.0243,0.0278,0.034,0.039,0.046,0.0556,0.055,0.0362,0.0157,-0.0117,-0.0246,-0.0391,-0.0422,-0.0396,-0.0465,-0.0451,-0.0468,-0.0467,-0.0469,-0.0469,-0.0469,-0.0468,-0.0468,0.0187,0.0201,0.0212,0.0236,0.0274,0.0358,0.0416,0.0484,0.0591,0.0704,0.0695,0.0694,0.0444,0.0088,-0.0147,-0.0393,-0.0399,-0.0494,-0.0492,-0.0491,-0.0497,-0.0485,-0.0509,-0.0509,-0.0509,-0.0509,-0.0509,0,0.0223,0.0237,0.0267,0.0313,0.0382,0.0394,0.0512,0.0582,0.0715,0.08,0.0845,0.0654,0.04,0.0142,-0.0242,-0.0483,-0.0501,-0.0535,-0.052,-0.0517,-0.0515,-0.0521,-0.054,-0.054,-0.0541,-0.0541,0,0,0.0243,0.028,0.0296,0.04,0.0449,0.0562,0.0645,0.0742,0.0819,0.0903,0.0912,0.0828,0.05,0.0224,-0.0111,-0.0322,-0.0354,-0.0354,-0.0308,-0.025,-0.0244,-0.0477,-0.0483,0,0,0,0,0]}],[{"header":{"parameterUnit":"m.s-1","parameterCategory":2,"la1":30.2991,"la2":30.254,"lo1":-89.0895,"lo2":-89.0444,"dy":0.0017,"dx":0.0017,"nx":28,"ny":28,"refTime":"2024-05-09T21:00:00:Z","depth":"4","parameterNumber":2,"parameterNumberName":"U-component_of_CURRENTS"},"data":[0,0,0,0,0,0,0,0,0,0,0,0,0,0,0,0,0,0,0,0,0,0,0,0,0,0,0,0,0,0,0,0,0,0,0,0,0,0,0,0,0,0,0,0,0,0,0,0,0,0,0,0,0,0,0,0,0,0,0.0803,0.0803,0,0.0863,0.0864,0.0864,0.0915,0.0915,0.0916,0.0916,0.1009,0.1011,0.1013,0,0,0,0,0,0,0,0,0,0,0,0,0,0.0731,0.0732,0.0803,0.0803,0.0804,0.0863,0.0864,0.0864,0.0915,0.0915,0.0916,0.0917,0.1008,0.101,0.1013,0,0,0,0,0,0,0,0,0,0,0,0,0,0.0773,0.0732,0.0802,0.0836,0.084,0.0863,0.0864,0.0865,0.0914,0.0915,0.0916,0.0917,0.1007,0.101,0.1013,0.1014,0,0,0.1022,0.1023,0,0,0,0,0,0,0,0,0.0771,0.0776,0.0831,0.0834,0.0838,0.0882,0.0872,0.0916,0.0914,0.0886,0.0916,0.0917,0.0969,0.0975,0.0984,0.1019,0.1023,0.1022,0.1024,0.1025,0.1026,0,0,0,0,0,0,0,0.0768,0.0774,0.0826,0.0831,0.0836,0.0848,0.0855,0.0881,0.0923,0.0889,0.0892,0.0899,0.0971,0.0981,0.0987,0.1024,0.1022,0.1025,0.1027,0.1028,0.1154,0.1156,0,0,0,0,0,0,0.076,0.0771,0.0824,0.0828,0.0806,0.0849,0.0857,0.0867,0.0922,0.0931,0.0898,0.0901,0.0976,0.0983,0.099,0.1083,0.1025,0.1028,0.103,0.1153,0.1155,0.1157,0,0,0,0,0,0,0.0758,0.0764,0.0822,0.0801,0.0809,0.0849,0.0861,0.0868,0.0903,0.0929,0.0939,0.0929,0.0976,0.0986,0.1038,0.1083,0.1029,0.1032,0.1151,0.1153,0.1156,0.1212,0,0,0,0,0,0,0.0756,0.0763,0.0778,0.08,0.081,0.0853,0.086,0.0868,0.0904,0.091,0.0958,0.0966,0.0978,0.1033,0.1041,0.1086,0.1034,0.1149,0.1152,0.1155,0.1208,0.1216,0.1222,0,0,0,0,0,0.0753,0.0765,0.0778,0.0785,0.0826,0.0854,0.086,0.0891,0.0905,0.0925,0.096,0.0966,0.1058,0.1037,0.1045,0.1093,0.1147,0.1151,0.1155,0.1204,0.1214,0.1222,0,0,0,0,0,0,0.0739,0.0772,0.0787,0.0809,0.0838,0.0863,0.0884,0.0903,0.0946,0.0957,0.0982,0.0992,0.1051,0.1063,0.1039,0.1138,0.1106,0.1111,0.1141,0.115,0.1157,0.115,0.1037,0,0,0,0,0,0.0742,0.0764,0.0794,0.0814,0.083,0.0861,0.0881,0.0902,0.0936,0.0956,0.099,0.1029,0.1067,0.1101,0.1125,0.1183,0.1184,0.122,0.1228,0.1234,0.1234,0.1269,0.128,0.1168,0.1168,0.1168,0,0,0.0739,0.0763,0.0774,0.0813,0.0838,0.0869,0.0876,0.0911,0.0947,0.0959,0.1023,0.1048,0.1084,0.1144,0.1174,0.1167,0.1269,0.1238,0.1244,0.124,0.1274,0.1285,0.1294,0.1171,0.1171,0.117,0,0,0.0743,0.077,0.0791,0.0819,0.0863,0.0885,0.09,0.0942,0.0975,0.1033,0.1051,0.1103,0.1167,0.1201,0.1227,0.129,0.1294,0.1309,0.1359,0.1394,0.1403,0.1411,0.1435,0.1444,0.1328,0.1328,0.1328,0,0.0743,0.0775,0.0801,0.0833,0.086,0.0896,0.0927,0.0964,0.102,0.1055,0.1064,0.1162,0.1193,0.1268,0.13,0.1307,0.1324,0.1323,0.1403,0.1411,0.1418,0.144,0.145,0.1331,0.1331,0.1331,0.133,0,0.0758,0.0796,0.0812,0.0866,0.0898,0.093,0.098,0.1025,0.1071,0.111,0.1191,0.1231,0.1294,0.1321,0.1338,0.1416,0.1409,0.1395,0.1378,0.1433,0.1452,0.1462,0.1336,0.1335,0.1334,0.1333,0,0,0.0729,0.0808,0.0817,0.0854,0.092,0.0947,0.1012,0.1081,0.1135,0.1197,0.1268,0.1344,0.1369,0.1399,0.1426,0.1471,0.1545,0.147,0.1471,0.1489,0.1625,0.1548,0.1551,0.1553,0.1555,0.1556,0.162,0,0.0739,0.08,0.0838,0.0904,0.0942,0.0997,0.1056,0.1124,0.1189,0.1267,0.1325,0.1398,0.1399,0.1446,0.1489,0.1528,0.1572,0.1529,0.1573,0.1574,0.1495,0.156,0.1562,0.1627,0.1629,0.1631,0.1632,0,0.0744,0.0789,0.0852,0.094,0.0961,0.1009,0.1109,0.1169,0.1276,0.1329,0.1405,0.1447,0.1534,0.1521,0.161,0.1587,0.1614,0.1635,0.1637,0.1549,0.1514,0.156,0.1648,0.1647,0.1646,0.1645,0.1644,0,0.0714,0.0801,0.0853,0.0882,0.0982,0.1031,0.1093,0.1196,0.1255,0.1377,0.1433,0.1518,0.1581,0.1622,0.1675,0.1656,0.1758,0.1729,0.168,0.1675,0.1697,0.1687,0.1786,0.1786,0.1786,0.1786,0.1785,0,0.0707,0.0753,0.0852,0.0881,0.0957,0.1032,0.112,0.1196,0.1302,0.1379,0.1468,0.1531,0.1614,0.168,0.1702,0.1724,0.178,0.1697,0.1691,0.172,0.1713,0.1704,0.1693,0.1788,0.1787,0.1787,0.1787,0,0.0671,0.0732,0.0802,0.0911,0.0948,0.101,0.1129,0.1188,0.1298,0.1399,0.1443,0.1567,0.1655,0.1716,0.1797,0.1758,0.1784,0.1776,0.1814,0.1807,0.1667,0.1659,0.1718,0.1716,0.1714,0.1712,0.1711,0,0.0657,0.0689,0.0809,0.0855,0.0911,0.1004,0.1064,0.1179,0.1237,0.1408,0.1447,0.158,0.1653,0.1697,0.1765,0.1799,0.1783,0.1775,0.1708,0.1674,0.1664,0.1658,0.1653,0.1708,0.1708,0.1708,0.1707,0,0.0629,0.0679,0.0737,0.0828,0.0902,0.0969,0.1064,0.1093,0.123,0.1332,0.1427,0.1494,0.1596,0.1653,0.1701,0.1718,0.1765,0.1756,0.1759,0.1696,0.1664,0.1654,0.165,0.1701,0.1702,0.1703,0.1703,0,0.0606,0.064,0.0721,0.08,0.0879,0.0926,0.0978,0.1053,0.1121,0.1295,0.1325,0.1472,0.1582,0.1614,0.1656,0.1672,0.1644,0.158,0.1591,0.1599,0.1532,0.1472,0.1457,0,0,0,0,0,0.0579,0.0616,0.0686,0.0769,0.084,0.0888,0.0975,0.1023,0.1143,0.118,0.1249,0.134,0.143,0.15,0.1495,0.1606,0.1646,0.1594,0.1575,0.1668,0.1675,0.1608,0,0,0,0,0,0,0.0563,0.0621,0.0668,0.0726,0.077,0.0839,0.089,0.0968,0.0986,0.1113,0.1164,0.1268,0.1366,0.1426,0.1475,0.1496,0.1459,0.1679,0.1676,0.1664,0.167,0.1676,0.1609,0,0,0,0,0]},{"header":{"parameterUnit":"m.s-1","parameterCategory":2,"la1":30.2991,"la2":30.254,"lo1":-89.0895,"lo2":-89.0444,"dy":0.0017,"dx":0.0017,"nx":28,"ny":28,"refTime":"2024-05-09T21:00:00:Z","depth":"4","parameterNumber":3,"parameterNumberName":"V-component_of_CURRENTS"},"data":[0,0,0,0,0,0,0,0,0,0,0,0,0,0,0,0,0,0,0,0,0,0,0,0,0,0,0,0,0,0,0,0,0,0,0,0,0,0,0,0,0,0,0,0,0,0,0,0,0,0,0,0,0,0,0,0,0,0,0.0469,0.0469,0,0.0452,0.0451,0.0451,0.0432,0.0432,0.0432,0.0432,0.0325,0.0322,0.0319,0,0,0,0,0,0,0,0,0,0,0,0,0,0.0433,0.0434,0.0469,0.0469,0.0469,0.0452,0.0451,0.0451,0.0432,0.0432,0.0432,0.0432,0.0326,0.0322,0.0319,0,0,0,0,0,0,0,0,0,0,0,0,0,0.0434,0.0434,0.0469,0.0459,0.0458,0.0452,0.0451,0.0451,0.0432,0.0432,0.0432,0.0432,0.0327,0.0323,0.0319,0.0297,0,0,0.0306,0.0304,0,0,0,0,0,0,0,0,0.0434,0.0435,0.046,0.0459,0.0458,0.0446,0.04,0.0395,0.0432,0.044,0.0432,0.0432,0.0358,0.0351,0.0347,0.0292,0.0287,0.0306,0.0303,0.0301,0.03,0,0,0,0,0,0,0,0.0434,0.0436,0.046,0.046,0.0459,0.0437,0.0437,0.0399,0.0397,0.0439,0.0438,0.0439,0.0357,0.0351,0.0344,0.0285,0.0306,0.0302,0.03,0.0298,0.0183,0.0183,0,0,0,0,0,0,0.0443,0.0436,0.0461,0.046,0.0448,0.0438,0.0438,0.0448,0.0399,0.0393,0.044,0.0439,0.0359,0.0349,0.034,0.0303,0.0302,0.0298,0.0295,0.0184,0.0183,0.0182,0,0,0,0,0,0,0.0443,0.0446,0.0462,0.0448,0.0449,0.044,0.045,0.0448,0.0448,0.0401,0.0392,0.0443,0.0358,0.0346,0.0309,0.0299,0.0296,0.0292,0.0184,0.0183,0.0183,0.0232,0,0,0,0,0,0,0.0442,0.0446,0.0459,0.0449,0.045,0.0463,0.0451,0.0448,0.0449,0.0448,0.0401,0.0391,0.0357,0.0315,0.0305,0.0293,0.0289,0.0185,0.0184,0.0183,0.0231,0.0233,0.0235,0,0,0,0,0,0.0441,0.0461,0.046,0.0463,0.0468,0.0464,0.0462,0.0453,0.045,0.0452,0.0418,0.0392,0.03,0.0312,0.03,0.0286,0.0186,0.0184,0.0183,0.0231,0.0233,0.0235,0,0,0,0,0,0,0.0452,0.0461,0.0459,0.0482,0.0475,0.0461,0.0466,0.0459,0.0437,0.0434,0.0389,0.0376,0.0339,0.0305,0.0319,0.0248,0.0237,0.0233,0.0277,0.0279,0.028,0.0286,0.0285,0,0,0,0,0,0.0461,0.0481,0.0476,0.0493,0.0492,0.048,0.048,0.0472,0.0451,0.0443,0.0409,0.0366,0.0323,0.0297,0.0258,0.0221,0.019,0.0202,0.0204,0.0206,0.02,0.0153,0.015,0.0178,0.0178,0.0178,0,0,0.0472,0.0479,0.0491,0.0497,0.0492,0.0488,0.0479,0.0481,0.0472,0.0432,0.0409,0.0374,0.0316,0.0277,0.0256,0.0247,0.0182,0.0204,0.0206,0.0199,0.0151,0.0149,0.0147,0.0177,0.0177,0.0177,0,0,0.0492,0.0507,0.0522,0.0518,0.0515,0.0504,0.0507,0.0493,0.0484,0.0459,0.0424,0.0387,0.0327,0.0283,0.0252,0.0237,0.0197,0.0221,0.0229,0.0184,0.0181,0.0179,0.0146,0.014,0.0217,0.0218,0.0218,0,0.05,0.0518,0.0524,0.0527,0.0524,0.0512,0.0511,0.0499,0.0474,0.046,0.0456,0.0368,0.0327,0.0266,0.0261,0.0241,0.0213,0.023,0.0187,0.0184,0.0181,0.0148,0.0141,0.022,0.022,0.0219,0.0219,0,0.052,0.0532,0.0539,0.0539,0.0537,0.0537,0.052,0.0512,0.0499,0.0478,0.0432,0.0381,0.0325,0.0306,0.0277,0.0227,0.0216,0.0202,0.0188,0.0181,0.0147,0.0139,0.0223,0.0222,0.0222,0.0221,0,0,0.0532,0.055,0.055,0.055,0.0543,0.0539,0.0529,0.0507,0.0495,0.0465,0.0437,0.0371,0.0348,0.031,0.027,0.023,0.0189,0.0208,0.0205,0.0187,0.0097,0.0071,0.006,0.0171,0.0169,0.0168,0.0087,0,0.0537,0.0549,0.0557,0.0557,0.0555,0.0546,0.0537,0.0517,0.0495,0.0465,0.0411,0.0369,0.0346,0.032,0.0277,0.021,0.0168,0.0213,0.0096,0.0092,0.0079,0.0049,0.0163,0.0081,0.0079,0.0077,0.0076,0,0.054,0.0548,0.0556,0.056,0.0559,0.056,0.0541,0.0532,0.0491,0.0474,0.0428,0.0386,0.0318,0.0305,0.0191,0.0222,0.016,0.0113,0.0109,0.0059,0.0051,0.0083,0.0061,0.0062,0.0063,0.0064,0.0065,0,0.0526,0.0541,0.0548,0.0549,0.0554,0.0557,0.0557,0.0532,0.0521,0.0477,0.046,0.0382,0.0337,0.0256,0.016,0.0172,0.0037,0.0041,-0.0041,-0.0043,-0.0014,-0.0011,-0.0047,-0.0047,-0.0047,-0.0047,-0.0046,0,0.0515,0.0519,0.0547,0.0547,0.0553,0.0559,0.0557,0.0548,0.0528,0.051,0.0463,0.0424,0.0322,0.0235,0.0155,0.0028,0.0029,-0.0052,-0.0074,0.0009,0.0016,-0.002,-0.0015,-0.005,-0.0049,-0.0048,-0.0048,0,0.0491,0.051,0.0519,0.0539,0.0547,0.055,0.0566,0.0562,0.0552,0.0526,0.0512,0.044,0.0331,0.0223,0.0081,0.0017,-0.0096,-0.0144,-0.0045,-0.0058,-0.0141,-0.0133,-0.0238,-0.024,-0.0241,-0.0242,-0.0244,0,0.0477,0.0482,0.0513,0.0522,0.0534,0.0547,0.0556,0.0564,0.0565,0.0532,0.0516,0.0414,0.0352,0.0143,0.0031,-0.0134,-0.0157,-0.0209,-0.0179,-0.0154,-0.0165,-0.0155,-0.0145,-0.0246,-0.0246,-0.0247,-0.0247,0,0.0447,0.0467,0.0478,0.0499,0.0516,0.0537,0.0557,0.056,0.0568,0.0559,0.0503,0.0398,0.0269,0.0127,-0.0012,-0.0126,-0.0168,-0.0225,-0.0222,-0.0194,-0.0165,-0.0172,-0.0161,-0.0252,-0.0252,-0.0251,-0.0251,0,0.0424,0.0429,0.0452,0.0464,0.0493,0.0519,0.0537,0.0542,0.0543,0.0526,0.0501,0.0381,0.0313,0.0128,0.0004,-0.0117,-0.0139,-0.0162,-0.0162,-0.0158,-0.0111,-0.006,-0.0148,0,0,0,0,0,0.0392,0.0395,0.0411,0.0431,0.0466,0.0486,0.053,0.0551,0.0567,0.0528,0.0519,0.0403,0.0214,0.0137,0.0009,-0.0029,-0.0165,-0.0183,-0.0192,-0.0281,-0.0275,-0.0236,0,0,0,0,0,0,0.0369,0.0383,0.0395,0.0403,0.0416,0.0455,0.0491,0.0509,0.0497,0.0499,0.0402,0.0363,0.0181,0.0276,-0.0001,-0.0038,-0.006,-0.0268,-0.027,-0.0285,-0.0279,-0.0274,-0.0232,0,0,0,0,0]}]]